Location: Kerguer�zec
(48.4509°N, 4.7600°W)
Time: 02:03:17
(UTC+00:00)

N. Korean satellite - Pass Details

Date: 17 March 2021
Orbit: 453 x 499 km, 97.2° (Epoch: 11 April)

Event Time Altitude Azimuth Distance (km) Brightness Sun altitude
Rises 05:21:33 0° 19° (NNE) 2,573 10.7 -11.8°
Reaches altitude 10° 05:23:43 10° 27° (NNE) 1,693 9.9 -11.4°
Maximum altitude 05:27:10 39° 98° (E) 762 8.2 -10.9°
Drops below altitude 10° 05:30:36 10° 168° (SSE) 1,696 9.3 -10.3°
Sets 05:32:47 0° 176° (S) 2,577 10.2 -10.0°
